CW6054 Weather Reports


time (UTC)temp
C
wind
direction
speed
KPH
gust
KPH
rain 1hr
cm
rain 24hr
cm
rain mn
cm
humidity
%
barometer
mb
20260506201110 7 171 0.0 0.0 0.08 3.05 3.05 94 1008.2
20260506200110 7 168 0.0 0.0 0.13 3.05 3.05 94 1008.1
20260506195110 7 213 0.0 0.0 0.15 3.02 3.02 94 1008.0
20260506194110 7 213 0.0 0.0 0.20 3.02 3.02 94 1008.0
20260506192109 7 213 0.0 0.0 0.28 2.97 2.97 94 1007.8
20260506190110 7 213 0.0 0.0 0.33 2.92 2.92 94 1007.7
20260506181109 7 169 0.0 0.0 0.15 2.64 2.64 94 1007.3
20260506180109 7 183 0.0 0.0 0.13 2.59 2.59 94 1007.1
20260506172112 8 204 0.0 0.0 0.05 2.49 2.49 94 1006.9
20260506171112 8 204 0.0 0.0 0.08 2.49 2.49 94 1006.9
20260506165112 8 225 0.0 0.0 0.15 2.49 2.49 94 1006.7
20260506164112 8 177 0.0 0.0 0.23 2.49 2.49 94 1006.7
20260506163112 8 162 0.0 0.0 0.28 2.46 2.46 94 1006.7
20260506160111 8 162 0.0 0.0 0.33 2.39 2.39 94 1006.7
20260506154111 8 162 0.0 0.0 0.33 2.26 2.26 94 1006.8
20260506151111 8 153 0.0 0.0 0.28 2.08 2.08 94 1006.8
20260506144111 8 180 0.0 0.0 0.33 1.93 1.93 94 1006.9
20260506143111 8 213 0.0 1.6 0.33 1.88 1.88 93 1006.8
20260506134110 8 173 0.0 0.0 0.25 1.63 1.63 93 1006.9
20260506133110 8 182 0.0 0.0 0.23 1.55 1.55 93 1006.8
20260506131110 8 175 0.0 0.0 0.18 1.45 1.45 93 1006.7
20260506130110 8 180 0.0 0.0 0.20 1.42 1.42 93 1006.6
20260506123110 8 148 0.0 1.6 0.15 1.32 1.32 93 1006.5
20260506122109 8 180 0.0 0.0 0.15 1.30 1.30 93 1006.4
20260506121109 8 169 0.0 0.0 0.13 1.27 1.27 93 1006.4
20260506115109 8 204 0.0 3.2 0.08 1.19 1.19 93 1006.3
20260506114109 8 161 0.0 0.0 0.05 1.17 1.17 93 1006.3
20260506113109 8 168 0.0 0.0 0.05 1.17 1.17 93 1006.2
20260506112108 8 195 0.0 0.0 0.05 1.17 1.17 93 1006.3
20260506103113 7 150 0.0 0.0 0.10 1.09 1.09 94 1006.4
20260506102113 7 153 0.0 0.0 0.13 1.09 1.09 93 1006.3
20260506100113 7 159 0.0 0.0 0.15 1.07 1.07 93 1006.4
20260506091113 7 192 0.0 0.0 0.15 0.94 0.94 94 1006.2
20260506085112 7 174 0.0 0.0 0.18 0.89 0.89 93 1006.1
20260506084112 7 182 0.0 0.0 0.15 0.86 0.86 94 1006.0
20260506083112 7 148 0.0 0.0 0.15 0.84 0.84 93 1006.0
20260506082112 6 177 0.0 1.6 0.15 0.81 0.81 93 1005.9
20260506080112 6 209 0.0 1.6 0.13 0.76 0.76 93 1005.7
20260506073112 6 205 0.0 0.0 0.08 0.71 0.69 93 1005.6
20260506072112 6 157 0.0 0.0 0.08 0.71 0.66 93 1005.6
20260506071111 6 184 0.0 0.0 0.08 0.69 0.64 93 1005.5
20260506070111 6 203 0.0 0.0 0.10 0.69 0.64 93 1005.4
20260506062111 5 213 0.0 1.6 0.15 0.66 0.58 93 1005.2
20260506061111 5 155 0.0 0.0 0.15 0.64 0.56 93 1005.4
20260506051110 5 178 0.0 4.8 0.30 0.51 0.41 92 1005.7
20260506042110 5 132 0.0 0.0 0.13 0.28 0.15 90 1005.8
20260506041110 5 132 0.0 0.0 0.08 0.23 0.10 89 1005.8
20260506035110 6 267 0.0 0.0 0.05 0.23 0.05 88 1005.7
20260506033110 6 187 0.0 0.0 0.03 0.23 0.03 87 1005.8
20260506032110 6 177 0.0 0.0 0.03 0.23 0.03 86 1005.9
20260506031109 7 267 0.0 0.0 0.03 0.23 0.03 85 1005.9
20260506030109 7 212 0.0 0.0 0.00 0.20 0.00 84 1005.9
20260506025109 7 202 0.0 1.6 0.00 0.30 0.00 83 1005.9
20260506023109 7 153 0.0 0.0 0.00 0.30 0.00 80 1006.1
20260506013113 8 208 0.0 0.0 0.00 0.58 0.00 86 1006.2
20260506011113 8 190 0.0 0.0 0.00 0.58 0.00 86 1006.3
20260506010113 8 175 0.0 0.0 0.00 0.58 0.00 85 1006.4
20260506003113 9 166 0.0 0.0 0.00 0.71 0.00 82 1006.6
20260506002113 9 166 0.0 0.0 0.00 0.71 0.00 82 1006.7
20260506000112 9 157 0.0 0.0 0.00 0.71 0.00 83 1006.7
20260505233112 9 221 0.0 0.0 0.00 0.71 0.00 84 1007.0
20260505232113 9 229 0.0 0.0 0.00 0.71 0.00 85 1007.0
20260505231112 10 229 0.0 0.0 0.00 0.71 0.00 85 1007.0
20260505223112 10 292 0.0 0.0 0.00 0.74 0.00 85 1007.2
20260505222111 10 156 0.0 0.0 0.00 0.74 0.00 85 1007.3
20260505221112 10 156 0.0 0.0 0.00 0.74 0.00 86 1007.4
20260505215111 10 156 0.0 0.0 0.00 0.84 0.84 86 1007.4
20260505213111 10 240 0.0 0.0 0.00 0.84 0.84 87 1007.5
20260505212111 10 240 0.0 0.0 0.00 0.84 0.84 87 1007.7
20260505210111 10 240 0.0 0.0 0.00 0.84 0.84 88 1007.7
20260505205110 10 240 0.0 0.0 0.00 0.84 0.84 88 1007.7
20260505203110 10 240 0.0 0.0 0.00 0.84 0.84 88 1007.7
20260505202110 10 240 0.0 0.0 0.00 0.84 0.84 87 1007.7